Minchumina, AK

12:50 PM AKDT on July 27, 2017 (GMT -0800)
Minchumina

Weather History for PAMH - January, 2013

Change the Weather History Date:

Friday, January 25, 2013

  Actual Average Record
Temperature  
Mean Temperature -19 °F -  
Max Temperature -11 °F 1 °F 24 °F (2000)
Min Temperature -27 °F -6 °F -47 °F (2006)
Degree Days  
Heating Degree Days 84    
Moisture  
Dew Point -21 °F    
Average Humidity 81    
Maximum Humidity 100    
Minimum Humidity 58    
Precipitation  
Precipitation 0.00 in - - ()
Sea Level Pressure  
Sea Level Pressure 29.93 in    
Wind  
Wind Speed 0 mph (North)    
Max Wind Speed 4 mph    
Max Gust Speed -    
Visibility 10 miles    
Events      
Averages and records for this station are not official NWS values.
T = Trace of Precipitation, MM = Missing Value Source: NWS Daily Summary

Daily Weather History Graph

Daily Weather History Graph

Search for Another Location

Airport or City:

Trip Planner

Search our weather history database for the weather conditions in past years. The results will help you decide how hot, cold, wet, or windy it might be!

Date:

Astronomy

Jan. 25, 2013 Rise Set
Actual Time 10:06 AM AKST 4:37 PM AKST
Civil Twilight 9:06 AM AKST 5:37 PM AKST
Nautical Twilight 8:06 AM AKST 6:37 PM AKST
Astronomical Twilight 7:10 AM AKST 7:33 PM AKST
Moon 3:48 PM AKST (1/25) 8:53 AM AKST (1/25)
Length of Visible Light 8h 30m
Length of Day
6h 31m
Waxing Gibbous, 98% of the Moon is Illuminated
Jan 25
Waxing Gibbous
Jan 26
Full
Feb 3
Last Quarter
Feb 9
New
Feb 17
First Quarter

Hourly Weather History & Observations

Time (AKST) Temp. Windchill Dew Point Humidity Pressure Visibility Wind Dir Wind Speed Gust Speed Precip Events Conditions
12:16 AM -13.0 °F - -20.2 °F 70% 29.88 in 10.0 mi Calm Calm - N/A   Clear
12:36 AM -13.0 °F - -20.2 °F 70% 29.88 in 10.0 mi Calm Calm - N/A   Clear
12:56 AM -13.0 °F - -20.2 °F 70% 29.89 in 10.0 mi Calm Calm - N/A   Clear
1:16 AM -13.0 °F - -20.2 °F 70% 29.89 in 10.0 mi Calm Calm - N/A   Clear
1:36 AM -13.0 °F - -20.2 °F 70% 29.89 in 10.0 mi Calm Calm - N/A   Clear
1:56 AM -11.2 °F - -20.2 °F 64% 29.89 in 10.0 mi Calm Calm - N/A   Clear
2:16 AM -14.8 °F - -18.4 °F 84% 29.89 in 10.0 mi Calm Calm - N/A   Clear
2:56 AM -16.6 °F - -27.4 °F 58% 29.90 in 10.0 mi Calm Calm - N/A   Clear
3:16 AM -13.0 °F - -14.8 °F 92% 29.90 in 10.0 mi Calm Calm - N/A   Clear
3:36 AM -16.6 °F - -22.0 °F 76% 29.90 in 10.0 mi Calm Calm - N/A   Clear
3:56 AM -16.6 °F - - N/A% 29.90 in 10.0 mi Calm Calm - N/A   Clear
4:16 AM -18.4 °F - -23.8 °F 76% 29.90 in 10.0 mi Calm Calm - N/A   Clear
4:36 AM -14.8 °F - -16.6 °F 92% 29.90 in 10.0 mi Calm Calm - N/A   Clear
4:56 AM -16.6 °F - -23.8 °F 70% 29.90 in 10.0 mi Calm Calm - N/A   Clear
5:16 AM -16.6 °F - -23.8 °F 70% 29.90 in 10.0 mi Calm Calm - N/A   Clear
5:36 AM -16.6 °F - -18.4 °F 92% 29.91 in 10.0 mi Calm Calm - N/A   Clear
5:56 AM -16.6 °F - -20.2 °F 84% 29.90 in 10.0 mi Calm Calm - N/A   Clear
6:16 AM -16.6 °F - -25.6 °F 64% 29.91 in 10.0 mi Calm Calm - N/A   Clear
6:36 AM -16.6 °F - -16.6 °F 100% 29.91 in 10.0 mi Calm Calm - N/A   Clear
6:56 AM -14.8 °F - -16.6 °F 92% 29.91 in 10.0 mi Calm Calm - N/A   Clear
7:16 AM -14.8 °F - -25.6 °F 58% 29.91 in 10.0 mi Calm Calm - N/A   Clear
7:36 AM -16.6 °F - -20.2 °F 84% 29.91 in 10.0 mi Calm Calm - N/A   Clear
7:56 AM -20.2 °F - -23.8 °F 83% 29.91 in 10.0 mi Calm Calm - N/A   Clear
8:16 AM -23.8 °F - - N/A% 29.91 in 10.0 mi Calm Calm - N/A   Clear
8:36 AM -23.8 °F - - N/A% 29.91 in 10.0 mi Calm Calm - N/A   Clear
8:56 AM -25.6 °F - -27.4 °F 91% 29.91 in 10.0 mi Calm Calm - N/A   Clear
9:16 AM -22.0 °F - -23.8 °F 91% 29.91 in 10.0 mi Calm Calm - N/A   Clear
9:36 AM -20.2 °F - -20.2 °F 100% 29.92 in 10.0 mi Calm Calm - N/A   Clear
10:16 AM -20.2 °F - -23.8 °F 83% 29.92 in 10.0 mi Calm Calm - N/A   Clear
10:36 AM -25.6 °F - - N/A% 29.92 in 10.0 mi Calm Calm - N/A   Clear
10:56 AM -23.8 °F - -23.8 °F 100% 29.92 in 10.0 mi Calm Calm - N/A   Clear
11:16 AM -20.2 °F - -20.2 °F 100% 29.92 in 10.0 mi Calm Calm - N/A   Clear
11:36 AM -25.6 °F - - N/A% 29.92 in 10.0 mi Calm Calm - N/A   Clear
11:56 AM -20.2 °F - - N/A% 29.92 in 10.0 mi Calm Calm - N/A   Clear
12:16 PM -18.4 °F - - N/A% 29.92 in 10.0 mi Calm Calm - N/A   Clear
12:36 PM -27.4 °F - - N/A% 29.93 in 10.0 mi Calm Calm - N/A   Clear
12:56 PM -25.6 °F - - N/A% 29.93 in 10.0 mi Calm Calm - N/A   Clear
1:16 PM -25.6 °F - - N/A% 29.94 in 10.0 mi Calm Calm - N/A   Clear
1:36 PM -23.8 °F - -25.6 °F 91% 29.94 in 10.0 mi Calm Calm - N/A   Clear
1:56 PM -20.2 °F - -20.2 °F 100% 29.94 in 10.0 mi Calm Calm - N/A   Clear
2:16 PM -20.2 °F - -23.8 °F 83% 29.94 in 10.0 mi Calm Calm - N/A   Clear
2:36 PM -20.2 °F - -25.6 °F 76% 29.94 in 10.0 mi Calm Calm - N/A   Clear
2:56 PM -18.4 °F - -25.6 °F 70% 29.94 in 10.0 mi Calm Calm - N/A   Clear
3:16 PM -18.4 °F - -25.6 °F 70% 29.94 in 10.0 mi Calm Calm - N/A   Clear
3:36 PM -16.6 °F - -18.4 °F 92% 29.94 in 10.0 mi Calm Calm - N/A   Clear
3:56 PM -16.6 °F - -23.8 °F 70% 29.94 in 10.0 mi Calm Calm - N/A   Clear
4:16 PM -18.4 °F - -25.6 °F 70% 29.94 in 10.0 mi Calm Calm - N/A   Clear
4:36 PM -16.6 °F - -23.8 °F 70% 29.95 in 10.0 mi Calm Calm - N/A   Clear
4:56 PM -20.2 °F - -23.8 °F 83% 29.96 in 10.0 mi Calm Calm - N/A   Clear
5:16 PM -14.8 °F -24.8 °F -25.6 °F 58% 29.95 in 10.0 mi North 3.5 mph - N/A   Clear
5:36 PM -18.4 °F - -18.4 °F 100% 29.95 in 10.0 mi Calm Calm - N/A   Clear
5:56 PM -16.6 °F - -16.6 °F 100% 29.95 in 10.0 mi Calm Calm - N/A   Clear
6:16 PM -18.4 °F - - N/A% 29.95 in 10.0 mi Calm Calm - N/A   Clear
6:36 PM -16.6 °F - -16.6 °F 100% 29.95 in 10.0 mi Calm Calm - N/A   Clear
6:56 PM -14.8 °F - -18.4 °F 84% 29.95 in 10.0 mi Calm Calm - N/A   Clear
7:16 PM -14.8 °F - -20.2 °F 77% 29.95 in 10.0 mi Calm Calm - N/A   Clear
7:36 PM -18.4 °F - -25.6 °F 70% 29.96 in 10.0 mi Calm Calm - N/A   Clear
7:56 PM -14.8 °F - -18.4 °F 84% 29.96 in 10.0 mi Calm Calm - N/A   Clear
8:16 PM -23.8 °F - -23.8 °F 100% 29.96 in 10.0 mi Calm Calm - N/A   Clear
8:36 PM -25.6 °F - - N/A% 29.96 in 10.0 mi Calm Calm - N/A   Clear
8:56 PM -14.8 °F - -20.2 °F 77% 29.96 in 10.0 mi Calm Calm - N/A   Clear
9:16 PM -13.0 °F - -14.8 °F 92% 29.96 in 10.0 mi Calm Calm - N/A   Clear
9:36 PM -13.0 °F - -22.0 °F 64% 29.96 in 10.0 mi Calm Calm - N/A   Clear
9:56 PM -13.0 °F - -18.4 °F 77% 29.96 in 10.0 mi Calm Calm - N/A   Clear
10:16 PM -20.2 °F - - N/A% 29.96 in 10.0 mi Calm Calm - N/A   Clear
10:36 PM -16.6 °F - -27.4 °F 58% 29.96 in 10.0 mi Calm Calm - N/A   Clear
10:56 PM -14.8 °F - -14.8 °F 100% 29.97 in 10.0 mi Calm Calm - N/A   Clear
11:16 PM -13.0 °F - -20.2 °F 70% 29.96 in 10.0 mi Calm Calm - N/A   Clear
11:36 PM - - - N/A% 29.95 in 10.0 mi Calm Calm - N/A   Clear
11:56 PM -14.8 °F - -20.2 °F 77% 29.96 in 10.0 mi Calm Calm - N/A   Clear